CZ-4C DEB

Satellite information

Favourite Embed

Satellite Type and Status

DEBRISIN ORBIT

Key statistics

Satellite CZ-4C DEB at a glance.

Uptime

5509

Days in orbit

Revolutions

≈ 14.7

Per day

Orbit

SSO

Sun Synchronous Orbit

Inclination

98.0

Latest

Satellite identification and parameters

Extended collection of information and parameters for CZ-4C DEB.

Object identification

Identified? True

Debris? True

Object name: CZ-4C DEB

International designator: 2010-038D

Object number (NORAD): 37568

Object ID (CCSDS): 37568

Country: PEOPLES REPUBLIC OF CHINA (PRC)

Current information (Y/N): Y

RCS size: SMALL

Orbital parameters

Period: 97.813 minutes

Inclination: 97.9632 deg

SMA: 7032.212 km

Apoapsis: 744.987 km

Periapsis: 563.166 km

RAAN: 345.4122 deg

Eccentricy: 0.01292771

Argument of periapsis: 96.5503 deg

Mean anomaly: 265.044 deg

Mean motion: 14.72193419 rev/day

Mean motion (dot): 0.00008529 rev/day2

B* drag term: 0.0011920282 1/REarth

Two-line elements (TLE)

Creation date: Sept. 8, 2025, 3:16 a.m.

Reference frame: TEME

Reference center: EARTH

Epoch: Sept. 7, 2025, 12:26 p.m. UTC

TLE line 0: 0 CZ-4C DEB

TLE line 1: 1 37568U 10038D 25250.51843955 .00008529 00000-0 11920-2 0 9994

TLE line 2: 2 37568 97.9632 345.4122 0129277 96.5503 265.0440 14.72193419794129

Live tracking on map

Real-time ground track for satellite CZ-4C DEB.

In-orbit conjunctions

A list of the most updated potential collisions computed for object CZ-4C DEB.

Target Orbit TCA Probability of collision Miss distance Type
CZ-6A DEB LEO 2025-01-09 20:40:06 0.0004994517 93.0 (m) DEBRIS
FENGYUN 1C DEB SSO 2024-11-15 01:42:01 0.0001593878 664.0 (m) DEBRIS

Associated space launch

CZ-4C DEB was lifted into orbit during the mission ‘Long March 4C | Yaogan-10’, on board a Long March 4C space rocket.

The launch took place on Aug. 9, 2010, 10:49 p.m. from Launch Complex 9.

For more information about the launch, click the button.

Launch to space Long March 4C | Yaogan-10
Long March 4C | Yaogan-10

Agency: N/A

Status: Launch Successful

Launch date: Aug. 9, 2010, 10:49 p.m. UTC

Rocket: Long March 4C

Launch pad: Launch Complex 9

Location: Taiyuan Satellite Launch Center, People's Republic of China

...

Latest news about this satellite

There are no fresh news available about this satellite. Check back as we update our databases every day.


Newsletter sign-up

Weekly statistics, charts and insights to help you stay on top of the space industry.